GORIZONT 12 [-]

Last updated on Tue Jun 27 2023 00:03:00 GMT+0000 (Coordinated Universal Time)

1 16769U 86044A 23177.04454066 .00000095 00000+0 00000+0 0 9992 2 16769 11.7919 328.6931 0001968 188.9921 182.6025 1.00324557136374
UTC large
Height (km)
Speed (km/s)
/
Latitude / Longitude
Inclination (degrees)
Orbital Period (minutes)
Azimuth
Elevation
Range (km)
Doppler Factor

Next 0 passes for location: London (51.5072 / 0.1276)

Sorry there are no passes over London.